,,PA_Meas_PMT16A,,PR_Meas_QMR101_102,,RH_Meas_QMH101,,SR_Meas_QMS101,,TA_Meas_QMH101,,GenWind,,GenWind,
time,status,PA,status,PR,status,RH,status,SR,status,TA,status,DirAvg,status,SpdAvg,
2017-03-02, 14:19:04,VALID,916.77,VALID,0,INVALID,134.248,VALID,110.235,VALID,20.2894,VALID,146,VALID,0,
2017-03-02, 14:20:04,VALID,916.733,VALID,0,INVALID,134.34,VALID,113.78,VALID,20.3074,VALID,155,VALID,0,
2017-03-02, 14:21:04,VALID,916.772,VALID,0,INVALID,134.386,VALID,117.218,VALID,20.3674,VALID,155,VALID,0,
2017-03-02, 14:22:04,VALID,916.762,VALID,0,INVALID,134.416,VALID,120.227,VALID,20.465,VALID,155,VALID,0,
2017-03-02, 14:23:04,VALID,916.785,VALID,0,INVALID,134.431,VALID,122.805,VALID,20.543,VALID,155,VALID,0,
2017-03-02, 14:24:04,VALID,916.8,VALID,0,INVALID,134.492,VALID,123.45,VALID,20.5414,VALID,156,VALID,0,
2017-03-02, 14:25:04,VALID,916.812,VALID,0,INVALID,134.469,VALID,113.028,VALID,20.66,VALID,156,VALID,0,
2017-03-02, 14:26:04,VALID,916.815,VALID,0,INVALID,134.462,VALID,121.731,VALID,20.7771,VALID,156,VALID,0,
2017-03-02, 14:27:04,VALID,916.831,VALID,0,INVALID,134.469,VALID,128.5,VALID,20.8567,VALID,157,VALID,0,
2017-03-02, 14:28:04,VALID,916.836,VALID,0,INVALID,134.347,VALID,137.417,VALID,20.834,VALID,161,VALID,0,
2017-03-02, 14:29:04,VALID,916.844,VALID,0,INVALID,133.814,VALID,143.112,VALID,20.8356,VALID,152,VALID,0,
2017-03-02, 14:30:04,VALID,916.878,VALID,0,INVALID,132.937,VALID,147.302,VALID,20.8145,VALID,152,VALID,0,
2017-03-02, 14:31:04,VALID,916.845,VALID,0,INVALID,132.739,VALID,151.277,VALID,20.8746,VALID,159,VALID,1.33047,
2017-03-02, 14:32:04,VALID,916.856,VALID,0,INVALID,132.358,VALID,154.823,VALID,20.8551,VALID,158,VALID,1.58516,
2017-03-02, 14:33:04,VALID,916.884,VALID,0,INVALID,132.068,VALID,154.715,VALID,20.8941,VALID,161,VALID,0.983594,
2017-03-02, 14:34:04,VALID,916.885,VALID,0,INVALID,132.609,VALID,145.368,VALID,20.9917,VALID,166,VALID,0.480859,
2017-03-02, 14:35:04,VALID,916.899,VALID,0,INVALID,132.678,VALID,138.062,VALID,21.0486,VALID,190,VALID,0.329297,
2017-03-02, 14:36:04,VALID,916.915,VALID,0,INVALID,132.304,VALID,132.26,VALID,21.1282,VALID,183,VALID,1.05039,
2017-03-02, 14:37:04,VALID,916.912,VALID,0,INVALID,132.03,VALID,129.467,VALID,21.2063,VALID,181,VALID,1.0625,
2017-03-02, 14:38:04,VALID,916.935,VALID,0,INVALID,131.809,VALID,127.533,VALID,21.1852,VALID,176,VALID,0.5375,
2017-03-02, 14:39:04,VALID,916.965,VALID,0,INVALID,131.374,VALID,128.392,VALID,21.2242,VALID,184,VALID,0.411719,
2017-03-02, 14:40:04,VALID,916.98,VALID,0,INVALID,130.864,VALID,129.681,VALID,21.2437,VALID,174,VALID,0,
2017-03-02, 14:41:04,VALID,917.001,VALID,0,INVALID,131.542,VALID,132.367,VALID,21.2616,VALID,183,VALID,0,
2017-03-02, 14:42:04,VALID,917.039,VALID,0,INVALID,131.931,VALID,134.624,VALID,21.3022,VALID,191,VALID,0,
2017-03-02, 14:43:04,VALID,917.034,VALID,0,INVALID,131.992,VALID,136.987,VALID,21.3022,VALID,167,VALID,0,
2017-03-02, 14:44:04,VALID,917.064,VALID,0,INVALID,132.464,VALID,139.244,VALID,21.3201,VALID,174,VALID,0,
2017-03-02, 14:45:04,VALID,917.06,VALID,0,INVALID,132.594,VALID,142.897,VALID,21.3412,VALID,172,VALID,0,
2017-03-02, 14:46:04,VALID,917.048,VALID,0,INVALID,132.777,VALID,146.013,VALID,21.3412,VALID,168,VALID,0,
2017-03-02, 14:47:04,VALID,917.08,VALID,0,INVALID,132.952,VALID,150.525,VALID,21.3396,VALID,171,VALID,0,
2017-03-02, 14:48:04,VALID,917.054,VALID,0,INVALID,132.243,VALID,152.566,VALID,21.3217,VALID,146,VALID,0,
2017-03-02, 14:49:04,VALID,917.104,VALID,0,INVALID,130.864,VALID,155.79,VALID,21.2827,VALID,143,VALID,0,
2017-03-02, 14:50:04,VALID,917.12,VALID,0,INVALID,130.726,VALID,159.335,VALID,21.2616,VALID,151,VALID,0,
2017-03-02, 14:51:04,VALID,917.115,VALID,0,INVALID,130.139,VALID,161.699,VALID,21.2437,VALID,149,VALID,0,
2017-03-02, 14:52:04,VALID,917.127,VALID,0,INVALID,130.04,VALID,165.997,VALID,21.2437,VALID,146,VALID,0,
2017-03-02, 14:53:04,VALID,917.134,VALID,0,INVALID,130.764,VALID,169.435,VALID,21.3396,VALID,149,VALID,0,
2017-03-02, 14:54:04,VALID,917.124,VALID,0,INVALID,130.429,VALID,173.625,VALID,21.4177,VALID,148,VALID,0,
2017-03-02, 14:55:04,VALID,917.125,VALID,0,INVALID,130.46,VALID,176.526,VALID,21.5542,VALID,148,VALID,0,
2017-03-02, 14:56:04,VALID,917.136,VALID,0,INVALID,129.873,VALID,179.104,VALID,21.712,VALID,148,VALID,0,
2017-03-02, 14:57:04,VALID,917.118,VALID,0,INVALID,119.261,VALID,174.807,VALID,21.7688,VALID,137,VALID,0,
2017-03-02, 14:58:04,VALID,917.128,VALID,0,VALID,104,VALID,171.369,VALID,21.8469,VALID,134,VALID,0,
2017-03-02, 14:59:04,VALID,917.148,VALID,0,INVALID,113.284,VALID,166.964,VALID,22.003,VALID,134,VALID,0,
2017-03-02, 15:00:04,VALID,917.149,VALID,0,VALID,102.184,VALID,160.732,VALID,22.1005,VALID,134,VALID,0,
2017-03-02, 15:01:04,VALID,917.181,VALID,0,INVALID,118.727,VALID,159.443,VALID,22.1591,VALID,134,VALID,0,
2017-03-02, 15:02:04,VALID,917.175,VALID,0,INVALID,119.611,VALID,154.715,VALID,22.1591,VALID,134,VALID,0,
2017-03-02, 15:03:04,VALID,917.184,VALID,0,INVALID,120.541,VALID,152.566,VALID,22.0598,VALID,288,VALID,0,
2017-03-02, 15:04:04,VALID,917.202,VALID,0,INVALID,124.971,VALID,151.707,VALID,21.8469,VALID,288,VALID,0,
2017-03-02, 15:05:04,VALID,917.193,VALID,0,INVALID,129.019,VALID,151.385,VALID,21.7315,VALID,288,VALID,0,
2017-03-02, 15:06:04,VALID,917.246,VALID,0,INVALID,130.315,VALID,152.566,VALID,21.6339,VALID,265,VALID,0,
2017-03-02, 15:07:04,VALID,917.25,VALID,0,INVALID,130.78,VALID,157.186,VALID,21.5152,VALID,268,VALID,0,
2017-03-02, 15:08:04,VALID,917.262,VALID,0,INVALID,131.412,VALID,160.947,VALID,21.4583,VALID,281,VALID,0,
2017-03-02, 15:09:04,VALID,917.256,VALID,0,INVALID,131.092,VALID,162.988,VALID,21.3412,VALID,281,VALID,0,
2017-03-02, 15:10:04,VALID,917.296,VALID,0,INVALID,131.611,VALID,169.864,VALID,21.2437,VALID,287,VALID,0,
2017-03-02, 15:11:04,VALID,917.296,VALID,0,INVALID,132.015,VALID,169.542,VALID,21.2031,VALID,282,VALID,0,
2017-03-02, 15:12:04,VALID,917.289,VALID,0,INVALID,132.426,VALID,170.402,VALID,21.1836,VALID,288,VALID,0,
2017-03-02, 15:13:04,VALID,917.297,VALID,0,INVALID,132.64,VALID,173.732,VALID,21.2242,VALID,287,VALID,0,
2017-03-02, 15:14:04,VALID,917.303,VALID,0,INVALID,132.609,VALID,183.187,VALID,21.2421,VALID,287,VALID,0,
2017-03-02, 15:15:04,VALID,917.3,VALID,0,INVALID,132.365,VALID,192.642,VALID,21.3006,VALID,287,VALID,0,
2017-03-02, 15:16:04,VALID,917.313,VALID,0,INVALID,132.373,VALID,193.394,VALID,21.4177,VALID,288,VALID,0,
2017-03-02, 15:17:04,VALID,917.301,VALID,0,INVALID,131.946,VALID,195.865,VALID,21.5542,VALID,287,VALID,0,
2017-03-02, 15:18:04,VALID,917.314,VALID,0,INVALID,130.734,VALID,200.378,VALID,21.6518,VALID,287,VALID,0,
2017-03-02, 15:19:04,VALID,917.319,VALID,0,INVALID,130.482,VALID,221.651,VALID,21.7688,VALID,287,VALID,0,
2017-03-02, 15:20:04,VALID,917.279,VALID,0,INVALID,128.157,VALID,209.295,VALID,21.8664,VALID,287,VALID,0,
2017-03-02, 15:21:04,VALID,917.321,VALID,0,INVALID,124.597,VALID,214.667,VALID,21.964,VALID,287,VALID,0,
2017-03-02, 15:22:04,VALID,917.288,VALID,0,INVALID,120.229,VALID,205.857,VALID,22.1005,VALID,287,VALID,0,
2017-03-02, 15:23:04,VALID,917.285,VALID,0,INVALID,117.416,VALID,208.973,VALID,22.2371,VALID,325,VALID,0,
2017-03-02, 15:24:04,VALID,917.297,VALID,0,INVALID,116.051,VALID,229.602,VALID,22.2957,VALID,81,VALID,0,
2017-03-02, 15:25:04,VALID,917.264,VALID,0,INVALID,124.353,VALID,241.85,VALID,22.372,VALID,72,VALID,0,
2017-03-02, 15:26:04,VALID,917.24,VALID,0,INVALID,126.533,VALID,262.909,VALID,22.5299,VALID,136,VALID,0,
2017-03-02, 15:27:04,VALID,917.263,VALID,0,VALID,103.419,VALID,273.438,VALID,22.6665,VALID,137,VALID,0,
2017-03-02, 15:28:04,VALID,917.245,VALID,0,VALID,90.7949,VALID,277.413,VALID,22.647,VALID,140,VALID,0,
2017-03-02, 15:29:04,VALID,917.236,VALID,0,VALID,92.3501,VALID,284.182,VALID,22.6274,VALID,138,VALID,0,
2017-03-02, 15:30:04,VALID,917.252,VALID,0,VALID,102.886,VALID,289.339,VALID,22.6843,VALID,159,VALID,0,
2017-03-02, 15:31:04,VALID,917.228,VALID,0,VALID,93.7756,VALID,288.909,VALID,22.7623,VALID,173,VALID,0,
2017-03-02, 15:32:04,VALID,917.269,VALID,0,VALID,87.0975,VALID,287.083,VALID,22.7055,VALID,156,VALID,0,
2017-03-02, 15:33:04,VALID,917.26,VALID,0,VALID,92.6779,VALID,289.017,VALID,22.6062,VALID,143,VALID,0,
2017-03-02, 15:34:04,VALID,917.284,VALID,0,VALID,92.9066,VALID,289.017,VALID,22.5494,VALID,155,VALID,0,
2017-03-02, 15:35:04,VALID,917.294,VALID,0,INVALID,111.134,VALID,300.298,VALID,22.5689,VALID,159,VALID,0,
2017-03-02, 15:36:04,VALID,917.309,VALID,0,VALID,99.6457,VALID,312.009,VALID,22.7055,VALID,177,VALID,0,
2017-03-02, 15:37:04,VALID,917.328,VALID,0,VALID,99.7295,VALID,315.125,VALID,22.8812,VALID,124,VALID,0,
2017-03-02, 15:38:04,VALID,917.327,VALID,0,VALID,90.8254,VALID,335.002,VALID,22.8989,VALID,84,VALID,0,
2017-03-02, 15:39:04,VALID,917.326,VALID,0,VALID,95.1021,VALID,340.803,VALID,23.0356,VALID,131,VALID,0,
2017-03-02, 15:40:04,VALID,917.296,VALID,0,VALID,90.9931,VALID,334.357,VALID,23.1739,VALID,133,VALID,0,
2017-03-02, 15:41:04,VALID,917.289,VALID,0,VALID,88.7213,VALID,343.167,VALID,23.2715,VALID,82,VALID,0,
2017-03-02, 15:42:04,VALID,917.313,VALID,0,VALID,84.9706,VALID,328.555,VALID,23.1917,VALID,106,VALID,0,
2017-03-02, 15:43:04,VALID,917.302,VALID,0,VALID,85.8092,VALID,296.86,VALID,23.1331,VALID,106,VALID,0,
2017-03-02, 15:44:04,VALID,917.343,VALID,0,VALID,87.25,VALID,289.554,VALID,23.0941,VALID,92,VALID,0,
2017-03-02, 15:45:04,VALID,917.367,VALID,0,VALID,85.55,VALID,276.768,VALID,22.9185,VALID,109,VALID,0,
2017-03-02, 15:46:04,VALID,917.335,VALID,0,VALID,89.2778,VALID,310.075,VALID,22.8209,VALID,105,VALID,0,
2017-03-02, 15:47:04,VALID,917.378,VALID,0,VALID,90.3146,VALID,336.935,VALID,22.8209,VALID,123,VALID,0,
2017-03-02, 15:48:04,VALID,917.334,VALID,0,VALID,88.0047,VALID,338.117,VALID,22.8209,VALID,116,VALID,0,
2017-03-02, 15:49:04,VALID,917.34,VALID,0,VALID,86.4267,VALID,340.588,VALID,22.7818,VALID,114,VALID,0,
2017-03-02, 15:50:04,VALID,917.369,VALID,0,VALID,88.4469,VALID,379.697,VALID,22.7818,VALID,98,VALID,0,
2017-03-02, 15:51:04,VALID,917.35,VALID,0,VALID,93.9891,VALID,414.186,VALID,22.8014,VALID,131,VALID,0,
2017-03-02, 15:52:04,VALID,917.354,VALID,0,VALID,86.9984,VALID,404.731,VALID,22.8989,VALID,74,VALID,0,
2017-03-02, 15:53:04,VALID,917.363,VALID,0,VALID,87.9361,VALID,396.565,VALID,22.8794,VALID,94,VALID,0,
2017-03-02, 15:54:04,VALID,917.33,VALID,0,VALID,84.6123,VALID,411.392,VALID,22.8014,VALID,112,VALID,0,
2017-03-02, 15:55:04,VALID,917.341,VALID,0,VALID,86.9679,VALID,409.566,VALID,22.8209,VALID,116,VALID,0,
2017-03-02, 15:56:04,VALID,917.381,VALID,0,VALID,90.7034,VALID,340.374,VALID,23.0356,VALID,90,VALID,0,
2017-03-02, 15:57:04,VALID,917.364,VALID,0,VALID,85.1383,VALID,349.936,VALID,23.0143,VALID,116,VALID,0,
2017-03-02, 15:58:04,VALID,917.398,VALID,0,VALID,84.9325,VALID,275.157,VALID,23.1331,VALID,108,VALID,0,
2017-03-02, 15:59:04,VALID,917.402,VALID,0,VALID,85.8778,VALID,251.842,VALID,23.1722,VALID,58,VALID,0,
2017-03-02, 16:00:04,VALID,917.409,VALID,0,VALID,85.1231,VALID,293.744,VALID,23.2307,VALID,54,VALID,0,
2017-03-02, 16:01:04,VALID,917.409,VALID,0,VALID,84.9249,VALID,291.166,VALID,23.3088,VALID,54,VALID,0,
2017-03-02, 16:02:04,VALID,917.392,VALID,0,VALID,84.5284,VALID,309.968,VALID,23.4241,VALID,54,VALID,0,
2017-03-02, 16:03:04,VALID,917.388,VALID,0,VALID,83.7585,VALID,342.2,VALID,23.6602,VALID,54,VALID,0,
2017-03-02, 16:04:04,VALID,917.381,VALID,0,VALID,82.6378,VALID,317.811,VALID,23.8145,VALID,14,VALID,0,
2017-03-02, 16:05:04,VALID,917.378,VALID,0,VALID,81.4638,VALID,300.298,VALID,23.9725,VALID,9,VALID,0,
2017-03-02, 16:06:04,VALID,917.374,VALID,0,VALID,80.6862,VALID,309.538,VALID,24.0292,VALID,359,VALID,0,
2017-03-02, 16:07:04,VALID,917.374,VALID,0,VALID,81.6468,VALID,340.266,VALID,24.0878,VALID,359,VALID,0,
2017-03-02, 16:08:04,VALID,917.389,VALID,0,VALID,82.2109,VALID,314.803,VALID,24.1269,VALID,43,VALID,0,
2017-03-02, 16:09:04,VALID,917.346,VALID,0,VALID,79.9544,VALID,394.846,VALID,23.9316,VALID,99,VALID,0,
2017-03-02, 16:10:04,VALID,917.35,VALID,0,VALID,81.8602,VALID,376.796,VALID,23.8731,VALID,95,VALID,0,
2017-03-02, 16:11:04,VALID,917.342,VALID,0,VALID,82.9046,VALID,359.176,VALID,23.992,VALID,88,VALID,0,
2017-03-02, 16:12:04,VALID,917.351,VALID,0,VALID,82.0051,VALID,326.943,VALID,24.1464,VALID,95,VALID,0,
2017-03-02, 16:13:04,VALID,917.327,VALID,0,VALID,80.9912,VALID,481.336,VALID,24.283,VALID,187,VALID,0,
2017-03-02, 16:14:04,VALID,917.328,VALID,0,VALID,79.4589,VALID,504.114,VALID,24.3806,VALID,195,VALID,0,
2017-03-02, 16:15:04,VALID,917.296,VALID,0,VALID,80.793,VALID,536.669,VALID,24.4978,VALID,165,VALID,0,
2017-03-02, 16:16:04,VALID,917.269,VALID,0,VALID,79.4817,VALID,513.461,VALID,24.5564,VALID,165,VALID,0,
2017-03-02, 16:17:04,VALID,917.25,VALID,0,VALID,78.3763,VALID,499.816,VALID,24.693,VALID,185,VALID,0,
2017-03-02, 16:18:04,VALID,917.242,VALID,0,VALID,78.3001,VALID,522.809,VALID,24.8083,VALID,178,VALID,0,
2017-03-02, 16:19:04,VALID,917.267,VALID,0,VALID,75.914,VALID,516.47,VALID,24.8492,VALID,157,VALID,2.01094,
2017-03-02, 16:20:04,VALID,917.3,VALID,0,VALID,77.5987,VALID,517.759,VALID,24.4764,VALID,172,VALID,1.95898,
2017-03-02, 16:21:04,VALID,917.265,VALID,0,VALID,81.7916,VALID,496.163,VALID,24.3788,VALID,120,VALID,0.510938,
2017-03-02, 16:22:04,VALID,917.291,VALID,0,VALID,77.4005,VALID,531.511,VALID,24.2635,VALID,143,VALID,1.2375,
2017-03-02, 16:23:04,VALID,917.313,VALID,0,VALID,80.4575,VALID,480.477,VALID,24.0878,VALID,147,VALID,0,
2017-03-02, 16:24:04,VALID,917.303,VALID,0,VALID,80.1678,VALID,525.602,VALID,24.0097,VALID,167,VALID,0,
2017-03-02, 16:25:04,VALID,917.28,VALID,0,VALID,77.8122,VALID,511.742,VALID,23.8731,VALID,149,VALID,0.514063,
2017-03-02, 16:26:04,VALID,917.315,VALID,0,VALID,80.5338,VALID,441.691,VALID,23.834,VALID,168,VALID,0,
2017-03-02, 16:27:04,VALID,917.274,VALID,0,VALID,82.2262,VALID,306.207,VALID,23.795,VALID,136,VALID,0.0214844,
2017-03-02, 16:28:04,VALID,917.324,VALID,0,VALID,82.2567,VALID,327.051,VALID,23.756,VALID,105,VALID,0,
2017-03-02, 16:29:04,VALID,917.276,VALID,0,VALID,85.8015,VALID,377.226,VALID,23.6779,VALID,86,VALID,0.903516,
2017-03-02, 16:30:04,VALID,917.326,VALID,0,VALID,80.2669,VALID,550.528,VALID,23.5785,VALID,111,VALID,0,
2017-03-02, 16:31:04,VALID,917.338,VALID,0,VALID,81.6315,VALID,612.415,VALID,23.6779,VALID,23,VALID,0,
2017-03-02, 16:32:04,VALID,917.322,VALID,0,VALID,78.4373,VALID,507.874,VALID,23.9512,VALID,34,VALID,0,
2017-03-02, 16:33:04,VALID,917.307,VALID,0,VALID,77.3472,VALID,592.216,VALID,24.1641,VALID,49,VALID,0,
2017-03-02, 16:34:04,VALID,917.307,VALID,0,VALID,77.553,VALID,319.96,VALID,24.3416,VALID,56,VALID,0,
2017-03-02, 16:35:04,VALID,917.315,VALID,0,VALID,75.3956,VALID,350.58,VALID,24.3416,VALID,122,VALID,0,
2017-03-02, 16:36:04,VALID,917.352,VALID,0,VALID,75.6395,VALID,634.333,VALID,24.3398,VALID,151,VALID,0,
2017-03-02, 16:37:04,VALID,917.287,VALID,0,VALID,75.3727,VALID,647.333,VALID,24.4374,VALID,115,VALID,0,
2017-03-02, 16:38:04,VALID,917.324,VALID,0,VALID,77.6292,VALID,464.038,VALID,24.6716,VALID,53,VALID,1.19102,
2017-03-02, 16:39:04,VALID,917.292,VALID,0,VALID,69.7771,VALID,487.998,VALID,24.6912,VALID,107,VALID,0,
2017-03-02, 16:40:04,VALID,917.261,VALID,0,VALID,72.7503,VALID,552.355,VALID,24.535,VALID,61,VALID,0,
2017-03-02, 16:41:04,VALID,917.276,VALID,0,VALID,73.6498,VALID,523.668,VALID,24.6131,VALID,162,VALID,0.0632813,
2017-03-02, 16:42:04,VALID,917.283,VALID,0,VALID,71.3475,VALID,434.814,VALID,24.5935,VALID,170,VALID,0,
2017-03-02, 16:43:04,VALID,917.265,VALID,0,VALID,69.5103,VALID,473.815,VALID,24.6716,VALID,225,VALID,0,
2017-03-02, 16:44:04,VALID,917.274,VALID,0,VALID,70.0287,VALID,523.131,VALID,24.6307,VALID,225,VALID,0,
2017-03-02, 16:45:04,VALID,917.273,VALID,0,VALID,71.1417,VALID,317.811,VALID,24.6912,VALID,225,VALID,0,
2017-03-02, 16:46:04,VALID,917.259,VALID,0,VALID,75.6929,VALID,350.258,VALID,24.7283,VALID,303,VALID,0,
2017-03-02, 16:47:04,VALID,917.234,VALID,0,VALID,77.9113,VALID,396.565,VALID,24.6307,VALID,303,VALID,0,
2017-03-02, 16:48:04,VALID,917.235,VALID,0,VALID,79.7409,VALID,404.194,VALID,24.574,VALID,302,VALID,0,
2017-03-02, 16:49:04,VALID,917.232,VALID,0,VALID,80.2136,VALID,340.696,VALID,24.5526,VALID,302,VALID,0,
2017-03-02, 16:50:04,VALID,917.195,VALID,0,VALID,78.445,VALID,502.18,VALID,24.4745,VALID,244,VALID,0,
2017-03-02, 16:51:04,VALID,917.267,VALID,0,VALID,81.0293,VALID,433.955,VALID,24.3965,VALID,254,VALID,0,
2017-03-02, 16:52:04,VALID,917.242,VALID,0,VALID,79.1539,VALID,517.437,VALID,24.3574,VALID,229,VALID,0,
2017-03-02, 16:53:04,VALID,917.232,VALID,0,VALID,77.9571,VALID,469.733,VALID,24.455,VALID,235,VALID,0,
2017-03-02, 16:54:04,VALID,917.264,VALID,0,VALID,79.0624,VALID,517.329,VALID,24.6307,VALID,285,VALID,0,
2017-03-02, 16:55:04,VALID,917.281,VALID,0,VALID,78.8719,VALID,330.167,VALID,24.7869,VALID,311,VALID,0,
2017-03-02, 16:56:04,VALID,917.296,VALID,0,VALID,77.0575,VALID,316.307,VALID,24.904,VALID,334,VALID,0,
2017-03-02, 16:57:04,VALID,917.3,VALID,0,VALID,77.7283,VALID,306.53,VALID,24.9236,VALID,313,VALID,0,
2017-03-02, 16:58:04,VALID,917.326,VALID,0,VALID,74.496,VALID,274.834,VALID,24.9236,VALID,283,VALID,0,
2017-03-02, 16:59:04,VALID,917.341,VALID,0,VALID,76.2113,VALID,280.207,VALID,24.8845,VALID,290,VALID,0,
2017-03-02, 17:00:04,VALID,917.294,VALID,0,VALID,75.5862,VALID,277.306,VALID,24.904,VALID,283,VALID,0,
2017-03-02, 17:01:04,VALID,917.342,VALID,0,VALID,74.8848,VALID,298.472,VALID,24.9236,VALID,282,VALID,0,
2017-03-02, 17:02:04,VALID,917.336,VALID,0,VALID,74.496,VALID,301.158,VALID,24.9431,VALID,283,VALID,0,
2017-03-02, 17:03:04,VALID,917.355,VALID,0,VALID,74.0005,VALID,286.975,VALID,24.9431,VALID,271,VALID,0,
2017-03-02, 17:04:04,VALID,917.365,VALID,0,VALID,77.0956,VALID,284.827,VALID,24.8278,VALID,271,VALID,0,
2017-03-02, 17:05:04,VALID,917.336,VALID,0,VALID,77.2023,VALID,286.653,VALID,24.7888,VALID,272,VALID,0,
2017-03-02, 17:06:04,VALID,917.366,VALID,0,VALID,74.8848,VALID,293.529,VALID,24.7888,VALID,270,VALID,0,
2017-03-02, 17:07:04,VALID,917.385,VALID,0,VALID,77.0422,VALID,303.629,VALID,24.8669,VALID,270,VALID,0,
2017-03-02, 17:08:04,VALID,917.373,VALID,0,VALID,77.1337,VALID,308.678,VALID,24.8278,VALID,270,VALID,0,
2017-03-02, 17:09:04,VALID,917.394,VALID,0,VALID,76.9126,VALID,299.653,VALID,24.8278,VALID,270,VALID,0,
2017-03-02, 17:10:04,VALID,917.378,VALID,0,VALID,77.2557,VALID,299.224,VALID,24.9059,VALID,270,VALID,0,
2017-03-02, 17:11:04,VALID,917.395,VALID,0,VALID,74.679,VALID,300.083,VALID,24.984,VALID,270,VALID,0,
2017-03-02, 17:12:04,VALID,917.412,VALID,0,VALID,74.9763,VALID,301.802,VALID,25.0036,VALID,270,VALID,0,
2017-03-02, 17:13:04,VALID,917.422,VALID,0,VALID,74.74,VALID,300.513,VALID,24.904,VALID,270,VALID,0,
2017-03-02, 17:14:04,VALID,917.416,VALID,0,VALID,73.3906,VALID,303.414,VALID,24.7283,VALID,256,VALID,0,
2017-03-02, 17:15:04,VALID,917.413,VALID,0,VALID,77.2481,VALID,305.563,VALID,24.6307,VALID,256,VALID,0,
2017-03-02, 17:16:04,VALID,917.414,VALID,0,VALID,75.5252,VALID,296.86,VALID,24.6326,VALID,265,VALID,0,
2017-03-02, 17:17:04,VALID,917.439,VALID,0,VALID,77.0422,VALID,297.719,VALID,24.7693,VALID,264,VALID,0,
2017-03-02, 17:18:04,VALID,917.398,VALID,0,VALID,73.9319,VALID,304.058,VALID,24.945,VALID,268,VALID,0,
2017-03-02, 17:19:04,VALID,917.406,VALID,0,VALID,72.9103,VALID,301.802,VALID,24.9645,VALID,272,VALID,0,
2017-03-02, 17:20:04,VALID,917.4,VALID,0,VALID,75.67,VALID,304.273,VALID,24.9645,VALID,251,VALID,0,
2017-03-02, 17:21:04,VALID,917.385,VALID,0,VALID,75.2355,VALID,275.264,VALID,24.7888,VALID,262,VALID,0,
2017-03-02, 17:22:04,VALID,917.385,VALID,0,VALID,77.2709,VALID,270.429,VALID,24.5935,VALID,252,VALID,0,
2017-03-02, 17:23:04,VALID,917.386,VALID,0,VALID,76.7602,VALID,265.702,VALID,24.4178,VALID,254,VALID,0,
2017-03-02, 17:24:04,VALID,917.415,VALID,0,VALID,75.9978,VALID,263.231,VALID,24.2617,VALID,256,VALID,0,
2017-03-02, 17:25:04,VALID,917.379,VALID,0,VALID,75.9673,VALID,260.975,VALID,24.1817,VALID,250,VALID,0,
2017-03-02, 17:26:04,VALID,917.396,VALID,0,VALID,76.3942,VALID,256.569,VALID,24.1836,VALID,250,VALID,0,
2017-03-02, 17:27:04,VALID,917.409,VALID,0,VALID,76.0817,VALID,247.222,VALID,24.1445,VALID,258,VALID,0,
2017-03-02, 17:28:04,VALID,917.423,VALID,0,VALID,75.8377,VALID,235.404,VALID,24.1055,VALID,241,VALID,0,
2017-03-02, 17:29:04,VALID,917.402,VALID,0,VALID,77.3929,VALID,226.593,VALID,24.1641,VALID,235,VALID,0,
2017-03-02, 17:30:04,VALID,917.4,VALID,0,VALID,76.2799,VALID,220.362,VALID,24.2031,VALID,235,VALID,0,
2017-03-02, 17:31:04,VALID,917.423,VALID,0,VALID,74.3664,VALID,211.014,VALID,24.2598,VALID,252,VALID,0,
2017-03-02, 17:32:04,VALID,917.392,VALID,0,VALID,72.3996,VALID,200.378,VALID,24.3202,VALID,252,VALID,0,
2017-03-02, 17:33:04,VALID,917.405,VALID,0,VALID,71.9879,VALID,193.072,VALID,24.3007,VALID,252,VALID,0,
2017-03-02, 17:34:04,VALID,917.394,VALID,0,VALID,70.8978,VALID,190.063,VALID,24.4178,VALID,240,VALID,0,
2017-03-02, 17:35:04,VALID,917.383,VALID,0,VALID,72.8951,VALID,193.394,VALID,24.5545,VALID,240,VALID,0,
2017-03-02, 17:36:04,VALID,917.391,VALID,0,VALID,70.4709,VALID,202.204,VALID,24.6521,VALID,219,VALID,0,
2017-03-02, 17:37:04,VALID,917.403,VALID,0,VALID,69.4951,VALID,214.56,VALID,24.6912,VALID,196,VALID,0,
2017-03-02, 17:38:04,VALID,917.391,VALID,0,VALID,68.5345,VALID,228.527,VALID,24.6698,VALID,193,VALID,0,
2017-03-02, 17:39:04,VALID,917.375,VALID,0,VALID,70.265,VALID,237.767,VALID,24.6716,VALID,192,VALID,0,
2017-03-02, 17:40:04,VALID,917.363,VALID,0,VALID,71.6372,VALID,245.073,VALID,24.7302,VALID,193,VALID,0,
2017-03-02, 17:41:04,VALID,917.399,VALID,0,VALID,69.7924,VALID,255.602,VALID,24.7497,VALID,214,VALID,0,
2017-03-02, 17:42:04,VALID,917.394,VALID,0,VALID,71.2103,VALID,272.793,VALID,24.7302,VALID,207,VALID,0,
2017-03-02, 17:43:04,VALID,917.368,VALID,0,VALID,72.2242,VALID,291.703,VALID,24.7888,VALID,197,VALID,0,
2017-03-02, 17:44:04,VALID,917.398,VALID,0,VALID,70.8749,VALID,312.224,VALID,24.8474,VALID,220,VALID,0,
2017-03-02, 17:45:04,VALID,917.356,VALID,0,VALID,70.0439,VALID,350.366,VALID,24.9274,VALID,220,VALID,0,
2017-03-02, 17:46:04,VALID,917.343,VALID,0,VALID,69.2816,VALID,426.756,VALID,24.9626,VALID,201,VALID,0,
2017-03-02, 17:47:04,VALID,917.343,VALID,0,VALID,68.5574,VALID,374.862,VALID,25.0798,VALID,212,VALID,0,
2017-03-02, 17:48:04,VALID,917.341,VALID,0,VALID,68.3744,VALID,355.63,VALID,25.2555,VALID,208,VALID,0,
2017-03-02, 17:49:04,VALID,917.339,VALID,0,VALID,71.9269,VALID,332.423,VALID,25.3531,VALID,280,VALID,0,
2017-03-02, 17:50:04,VALID,917.342,VALID,0,VALID,65.8892,VALID,315.34,VALID,25.3922,VALID,319,VALID,0,
2017-03-02, 17:51:04,VALID,917.321,VALID,0,VALID,66.5677,VALID,304.058,VALID,25.3726,VALID,282,VALID,0,
2017-03-02, 17:52:05,VALID,917.304,VALID,0,VALID,66.8345,VALID,292.992,VALID,25.3141,VALID,270,VALID,0,
2017-03-02, 17:53:05,VALID,917.31,VALID,0,VALID,66.1026,VALID,290.521,VALID,25.1774,VALID,298,VALID,0,
2017-03-02, 17:54:05,VALID,917.296,VALID,0,VALID,66.2094,VALID,290.521,VALID,25.0212,VALID,298,VALID,0,
2017-03-02, 17:55:05,VALID,917.276,VALID,0,VALID,68.5803,VALID,306.315,VALID,24.9626,VALID,289,VALID,0,
2017-03-02, 17:56:05,VALID,917.262,VALID,0,VALID,68.8776,VALID,327.803,VALID,24.904,VALID,274,VALID,0,
2017-03-02, 17:57:05,VALID,917.285,VALID,0,VALID,68.8471,VALID,326.621,VALID,24.865,VALID,276,VALID,0,
2017-03-02, 17:58:05,VALID,917.239,VALID,0,VALID,69.1673,VALID,346.39,VALID,24.8669,VALID,322,VALID,0,
2017-03-02, 17:59:05,VALID,917.225,VALID,0,VALID,71.0045,VALID,357.779,VALID,24.865,VALID,344,VALID,0,
2017-03-02, 18:00:05,VALID,917.226,VALID,0,VALID,72.7503,VALID,341.555,VALID,24.9431,VALID,356,VALID,0,
2017-03-02, 18:01:05,VALID,917.243,VALID,0,VALID,69.4265,VALID,332.101,VALID,25.0426,VALID,335,VALID,0,
2017-03-02, 18:02:05,VALID,917.192,VALID,0,VALID,68.5269,VALID,324.902,VALID,25.0017,VALID,330,VALID,0,
2017-03-02, 18:03:05,VALID,917.221,VALID,0,VALID,67.4291,VALID,324.687,VALID,24.9626,VALID,326,VALID,0,